Snowfall_Accumulation
2.5 2.8 2.9 3.2 3.4 3.6 4.4 4.1 4.5 4.0 4.3 4.7 4.7 4.7 4.8 5.0 5.2 5.6 5.6 5.6 5.9 5.9 6.9 7.4 7.5 7.1 6.4 6.0 6.9 6.6 6.1 6.1 6.1 6.0 6.3 6.4 6.9 8.1 7.6 8.7 12.4 13.7 9.8 4.3 2.5 2.3 2.7 2.2 1.5 2.0 1.6 2.5 2.8 2.8 2.3 1.7 1.7 1.9 2.1 2.2 2.4 2.8 2.7
3.0 3.1 3.2 3.4 3.5 3.5 3.8 4.7 4.9 4.7 5.1 5.4 5.2 5.2 5.1 5.8 6.5 6.3 6.4 6.1 6.6 6.0 6.2 6.9 7.7 7.4 6.9 6.6 7.9 7.8 7.7 7.3 6.9 7.0 7.2 6.9 7.3 8.2 8.1 7.2 10.5 12.0 10.4 8.6 4.0 3.2 2.3 2.6 1.5 2.4 1.4 2.3 2.5 3.1 2.9 3.0 2.6 2.3 2.2 2.4 2.4 2.7 2.9
3.3 3.4 3.5 3.5 3.4 3.4 3.8 3.8 4.2 3.9 4.8 5.4 5.5 5.6 5.4 5.4 5.8 6.3 6.6 6.5 6.4 6.1 6.0 7.0 7.5 7.6 6.9 6.8 8.4 8.4 8.3 7.7 7.9 7.3 7.5 7.5 6.5 7.3 7.0 6.9 8.0 10.7 11.9 9.2 7.1 4.0 3.8 3.3 2.5 2.6 2.5 2.1 2.4 2.5 2.3 3.3 3.6 3.3 3.1 2.8 2.7 3.0 3.0
3.5 3.7 3.6 3.9 4.0 4.3 3.9 3.9 3.7 3.9 4.3 4.6 4.6 5.2 5.6 5.2 5.2 5.6 6.1 6.5 6.4 6.4 6.9 7.7 8.2 8.1 7.6 8.0 9.0 9.0 8.7 8.8 8.8 9.1 8.8 8.3 7.3 6.9 6.8 6.2 6.4 7.4 10.0 9.3 9.1 5.8 4.8 3.7 3.4 2.7 2.1 2.2 2.2 3.1 3.7 3.5 3.7 3.5 3.8 3.4 3.3 3.4 3.9
3.7 3.9 4.1 4.2 4.0 3.8 3.7 3.8 3.7 3.9 4.0 4.0 3.9 4.3 4.5 4.9 5.3 5.4 5.7 5.7 6.1 6.6 7.2 7.5 7.8 7.4 7.4 8.1 9.8 9.4 9.7 9.6 10.1 10.4 10.5 10.8 9.5 9.4 8.6 7.9 7.7 8.0 7.9 10.3 10.3 7.5 4.5 3.6 3.4 2.9 2.9 2.6 3.7 3.9 4.2 4.1 4.6 4.6 5.0 4.6 4.2 3.8 4.0
4.3 4.3 4.1 4.0 3.9 3.9 4.2 3.9 4.0 4.2 4.7 4.1 3.7 3.8 3.9 4.1 4.3 4.4 4.7 5.0 5.3 5.6 6.2 7.0 7.0 6.9 7.2 7.8 9.2 9.6 9.1 10.0 11.2 11.2 11.5 11.9 11.9 11.9 11.2 11.5 11.1 10.2 10.7 11.1 10.7 8.6 7.3 4.2 4.2 4.0 3.9 3.5 3.9 4.4 5.0 5.8 5.7 4.9 5.5 6.1 6.7 6.0 5.3
4.6 4.4 4.3 4.1 4.0 4.1 4.1 4.0 3.9 4.1 4.2 4.1 4.0 4.2 4.4 4.5 4.4 4.3 4.2 4.4 4.4 4.2 4.5 5.0 5.4 5.9 6.2 7.3 7.9 8.6 8.7 8.9 9.1 10.3 11.2 11.4 11.9 11.5 12.8 14.8 15.0 14.0 13.7 13.5 13.1 11.2 8.4 7.1 5.0 4.3 5.1 3.6 3.1 3.6 4.1 5.6 6.9 7.8 6.4 6.2 6.3 6.8 6.0
4.7 4.2 4.1 4.3 4.2 3.9 3.9 4.0 4.0 4.0 4.4 4.5 4.4 4.7 5.1 5.0 5.7 5.8 5.3 4.6 4.1 4.1 4.4 4.3 4.3 4.5 4.5 4.9 5.3 6.1 6.4 7.1 8.8 9.2 10.8 9.9 10.4 11.7 13.9 15.7 15.0 14.9 15.2 15.7 15.0 13.3 11.0 8.0 6.9 5.3 4.3 4.1 4.4 5.4 5.4 4.9 6.0 8.0 7.5 7.3 6.7 6.5 7.1
4.8 4.7 4.8 4.2 4.1 4.4 3.9 4.3 4.2 4.3 5.4 5.5 5.5 6.1 7.8 7.8 8.0 7.5 7.1 6.6 6.0 5.3 4.8 4.6 4.4 4.2 4.4 4.0 4.0 4.2 4.7 5.6 6.8 8.8 11.0 10.3 10.4 12.5 14.3 15.8 15.8 16.4 16.7 16.5 15.5 14.4 10.3 9.7 8.3 7.0 6.3 6.0 6.4 7.6 7.8 5.5 5.2 6.7 5.8 5.7 6.1 6.8 6.6
4.9 5.3 6.7 5.1 4.7 4.5 5.0 4.7 4.4 4.5 6.4 6.2 9.7 12.4 13.5 13.8 13.4 12.7 12.3 11.6 10.3 8.5 6.9 6.1 5.3 4.6 3.7 3.7 4.0 4.5 5.0 6.1 7.0 7.6 9.1 11.2 11.9 13.2 15.3 16.6 17.4 17.0 15.9 16.0 17.4 15.3 12.2 12.3 10.5 8.0 6.8 6.4 5.5 4.7 4.2 5.0 5.8 7.1 6.0 5.2 6.3 6.2 7.3
6.4 6.1 5.9 5.6 5.7 6.1 5.8 5.6 4.9 4.8 7.6 11.5 14.8 17.5 19.6 19.3 17.3 14.8 13.4 12.2 11.3 10.1 7.6 6.2 5.4 5.0 4.5 4.4 4.6 5.0 5.4 6.2 6.7 7.9 8.9 9.3 10.2 12.2 16.2 20.5 21.9 20.1 16.9 17.5 17.0 13.7 12.0 11.7 10.3 7.6 6.7 6.6 6.0 5.1 5.9 6.2 6.2 7.4 7.2 8.5 9.2 10.3 7.6
7.4 6.1 5.8 6.0 6.2 6.5 6.3 6.3 5.1 5.8 11.3 13.9 18.5 24.1 25.0 22.9 20.7 17.7 15.4 13.5 12.4 10.9 9.6 8.3 7.3 6.5 5.8 5.8 5.6 5.9 6.3 7.1 7.4 8.0 8.4 9.1 10.5 11.8 14.0 17.3 18.4 20.6 20.3 18.2 18.4 17.2 14.2 12.3 10.5 7.7 6.5 6.4 6.5 7.5 7.1 7.2 8.1 9.1 10.0 10.3 10.1 9.0 8.6
7.0 6.9 7.0 7.2 8.1 7.5 6.9 6.9 5.7 7.3 12.0 15.3 21.4 26.6 30.0 25.7 21.9 19.3 16.0 13.3 11.8 10.7 9.6 8.8 9.2 8.5 7.6 6.5 5.5 6.0 6.3 6.8 7.0 6.8 7.4 8.3 9.0 9.5 11.6 15.9 21.0 20.1 17.7 19.7 20.9 20.7 16.7 12.2 10.8 10.4 7.5 5.9 6.9 7.7 10.1 9.4 11.1 10.9 10.8 10.8 10.6 8.8 6.8
8.3 8.1 8.8 9.2 9.6 9.4 8.9 8.5 7.2 8.2 13.7 19.6 23.8 29.0 34.4 28.5 24.3 20.1 16.7 13.9 11.8 10.3 9.3 8.6 8.9 9.2 8.5 7.0 6.4 6.5 6.8 7.0 7.6 7.7 8.1 9.1 9.8 10.1 9.4 10.5 11.2 11.4 11.2 13.7 17.9 20.6 20.3 12.0 10.0 9.5 7.9 8.4 7.7 10.7 14.2 14.9 15.2 13.0 13.5 13.0 12.4 8.5 7.6
9.8 9.9 10.3 10.5 11.6 11.5 11.4 9.6 8.1 11.2 17.3 21.2 25.3 29.9 36.6 31.1 25.1 19.8 15.8 12.7 11.0 10.3 9.6 8.8 8.4 8.4 8.2 7.4 7.3 7.1 7.0 7.7 8.6 9.3 10.4 10.1 9.5 8.6 7.7 7.0 6.7 7.9 10.2 11.7 11.6 14.0 15.0 12.9 10.3 9.2 8.4 8.5 10.3 14.0 15.5 15.4 15.7 14.4 14.7 14.3 12.0 11.7 10.4
8.6 9.2 9.3 9.1 9.8 11.0 10.9 8.6 8.0 12.4 17.4 20.0 25.4 32.5 32.6 31.0 24.9 19.9 15.6 12.4 10.3 9.4 8.4 7.9 8.4 9.3 9.4 8.4 7.8 7.0 10.1 9.6 10.5 13.2 14.2 13.0 10.3 8.4 7.0 6.3 5.3 7.6 9.6 9.1 12.1 13.7 13.6 13.3 13.1 15.9 16.8 16.9 17.7 18.2 17.5 16.8 16.6 16.8 18.5 20.2 20.9 17.7 10.4
6.9 7.3 8.2 8.5 8.8 9.3 8.7 8.0 7.9 10.0 15.6 18.0 23.6 34.8 37.9 33.6 26.1 20.1 16.1 12.2 10.1 9.2 8.4 7.8 7.9 8.6 9.3 8.8 8.1 7.6 11.7 14.6 16.9 20.3 20.2 18.3 15.0 11.4 9.7 7.9 5.2 8.1 15.4 22.9 28.9 33.5 30.0 28.8 29.9 32.6 36.7 36.5 35.4 28.2 27.0 28.2 30.7 27.4 18.9 20.5 22.0 15.5 9.9
7.2 7.2 7.6 8.4 8.6 8.5 9.0 8.1 7.2 8.7 13.1 16.7 22.0 31.7 35.7 33.9 29.7 22.9 17.5 14.2 11.5 10.3 9.7 8.0 8.0 8.2 9.2 9.4 8.4 10.3 13.9 19.4 21.5 28.5 26.3 23.7 21.0 17.3 14.0 9.1 5.3 4.4 5.0 11.5 19.0 23.8 25.6 28.8 25.9 24.9 25.3 28.1 27.5 26.1 20.2 28.7 35.4 22.7 15.3 17.7 16.0 15.6 9.2
7.6 7.4 7.4 7.5 7.7 7.5 8.7 8.6 7.5 7.6 11.6 15.2 22.8 28.9 32.9 32.8 29.1 25.7 19.5 16.1 14.0 10.9 9.3 8.0 7.1 8.1 9.9 9.9 10.4 15.9 19.8 27.9 25.1 29.7 27.3 22.2 21.0 20.8 17.5 11.1 7.1 6.0 6.0 6.0 7.4 8.8 9.9 11.9 14.4 13.5 13.9 12.8 13.8 15.8 18.8 20.0 22.4 18.8 18.7 20.5 16.2 13.5 11.9
6.7 7.0 6.9 6.9 8.1 8.7 8.6 8.8 8.2 8.2 9.1 17.0 24.4 26.1 28.7 30.7 29.8 27.8 22.6 18.8 16.0 15.2 12.8 10.1 8.9 7.8 8.5 13.4 19.2 19.7 25.6 27.5 35.2 32.9 32.9 27.3 27.0 24.6 18.0 9.8 7.7 7.6 8.1 8.1 7.9 7.5 6.6 7.7 8.0 10.0 11.9 11.8 11.1 10.5 11.7 14.7 14.1 15.1 16.8 18.3 17.0 14.1 12.9
6.7 7.3 7.7 7.3 7.7 8.6 8.9 8.8 8.8 7.9 9.5 17.7 21.3 20.5 29.3 30.6 26.9 22.1 20.2 19.8 18.8 15.6 13.2 11.2 9.5 8.4 7.3 9.1 14.1 18.8 25.0 27.8 35.5 38.7 33.7 31.7 29.1 21.9 15.7 12.8 15.3 12.8 9.8 10.7 9.8 8.6 7.8 7.4 7.7 9.1 11.1 12.5 11.7 10.8 10.5 11.9 10.1 10.3 10.1 13.3 16.0 16.1 14.6
7.8 7.8 7.2 6.7 7.1 8.3 8.7 8.1 7.8 8.7 9.5 14.9 19.4 21.0 24.2 27.1 25.4 19.8 21.9 23.9 18.8 14.0 11.5 9.2 8.2 8.3 7.6 8.4 12.9 20.5 29.0 33.2 37.4 40.2 31.3 28.5 30.6 30.8 26.5 18.2 15.8 13.7 12.7 11.6 10.8 10.2 9.6 8.9 8.6 9.1 9.5 11.7 12.4 11.5 10.7 10.6 9.9 8.8 8.0 7.1 7.6 10.2 12.7
8.2 8.1 7.8 7.6 7.9 8.2 8.2 8.1 8.0 9.0 9.3 11.2 15.9 18.4 21.3 24.8 27.7 24.8 20.9 21.9 20.5 15.3 11.5 9.0 8.5 7.9 8.2 11.0 20.6 27.4 33.4 33.8 34.5 30.7 30.5 30.8 28.2 27.0 23.2 21.8 22.7 20.2 18.3 15.6 13.1 11.9 12.3 10.3 8.4 8.7 8.5 8.5 10.6 10.7 9.4 10.1 9.6 9.3 8.9 9.0 7.7 6.8 7.1
8.8 8.5 8.9 9.2 9.0 8.4 8.0 8.1 8.8 8.7 8.3 9.3 12.0 16.9 21.8 22.2 25.5 25.3 22.1 19.7 18.0 14.4 12.6 11.4 10.5 11.6 14.4 21.7 23.1 25.4 28.8 30.6 27.2 26.7 29.7 29.1 25.4 19.3 19.3 22.9 25.7 25.6 24.1 20.0 16.8 15.2 12.6 10.2 7.3 6.9 6.9 7.5 7.1 9.3 10.7 10.7 11.0 10.1 9.7 9.8 8.9 7.4 6.8
8.5 9.4 9.4 9.3 9.2 9.2 9.0 9.0 9.5 9.0 8.7 8.8 9.6 12.0 14.7 17.4 20.0 19.0 17.2 17.4 14.7 13.1 13.0 11.9 13.3 16.4 18.5 20.2 21.8 22.6 21.1 20.5 18.5 18.6 22.3 20.1 20.3 20.5 20.7 22.9 22.3 21.0 21.1 24.0 22.2 16.5 11.7 8.0 6.2 5.5 5.7 5.9 7.4 9.2 12.0 13.9 13.9 13.2 11.5 10.7 9.9 9.2 7.4
9.9 9.7 9.3 9.7 9.2 9.9 10.4 10.9 10.0 9.3 9.3 9.6 10.1 10.7 11.1 12.8 13.1 13.5 13.1 14.4 13.4 10.3 9.2 9.8 12.9 10.8 11.0 12.0 13.0 15.1 17.9 21.8 16.9 14.3 13.9 15.1 17.1 19.6 21.5 21.2 19.3 17.0 17.4 17.9 14.7 13.3 11.9 8.8 6.6 6.8 7.4 7.6 8.9 11.2 12.9 13.9 15.3 16.0 15.2 13.3 13.3 12.7 11.9
10.8 11.5 11.7 12.0 11.3 11.6 11.8 11.6 9.9 9.6 10.1 11.6 13.3 13.5 12.6 12.5 12.8 12.5 11.8 12.7 13.9 12.1 10.4 9.4 10.0 10.5 10.9 11.4 11.3 13.4 15.1 14.4 12.2 12.7 15.8 15.0 14.6 18.5 19.8 22.3 16.5 14.0 14.2 12.8 11.7 11.3 9.8 9.1 9.6 9.6 11.9 13.0 12.2 12.2 11.0 10.6 12.0 14.5 14.7 12.7 12.5 12.6 12.7
16.4 17.5 17.8 18.7 16.6 16.1 14.1 12.2 10.7 10.4 12.5 16.9 17.5 16.8 14.9 14.3 14.6 15.7 15.7 13.5 13.2 13.1 12.0 12.4 11.6 11.8 12.1 13.5 14.6 15.0 15.4 15.2 14.7 13.5 12.6 12.6 13.8 15.5 16.6 17.5 16.1 15.1 15.8 14.6 13.8 14.0 12.8 13.8 13.9 15.5 14.0 12.2 11.7 10.2 9.2 9.5 11.4 12.1 14.1 14.9 14.8 18.4 16.8
26.6 24.4 24.4 22.2 21.4 22.4 20.9 17.3 16.4 14.1 14.7 19.0 19.0 20.1 20.8 21.1 19.3 17.7 17.6 14.4 14.1 16.6 16.2 14.6 14.2 13.6 12.8 12.2 12.2 12.7 13.2 12.8 12.7 12.3 12.4 13.8 14.4 14.0 14.5 15.0 17.3 18.8 16.2 13.6 14.7 16.6 16.2 15.8 15.2 14.3 12.5 13.0 13.2 11.5 10.0 9.8 12.0 12.4 13.0 14.8 17.7 20.0 15.5
31.3 30.2 28.9 27.7 21.3 20.2 25.3 24.5 19.4 16.1 21.7 24.0 24.6 27.3 23.7 22.2 23.8 21.2 19.3 16.5 15.4 15.8 17.1 15.2 13.3 11.8 11.2 10.6 10.3 10.9 10.7 10.7 10.9 11.5 11.9 12.7 13.4 13.7 14.4 14.9 15.6 16.0 14.8 13.5 14.4 14.7 15.8 15.1 14.3 13.3 12.4 12.8 12.7 11.7 10.5 10.0 12.2 13.8 13.9 17.2 19.9 20.0 16.7
27.3 28.7 24.1 24.7 28.3 22.8 16.5 15.2 14.3 14.5 21.2 24.8 29.4 29.3 26.2 27.2 24.3 23.6 22.4 19.0 19.2 18.4 16.3 14.1 12.2 10.8 9.7 9.3 9.3 9.8 9.7 9.9 10.7 10.9 11.1 11.6 12.1 12.6 13.3 13.8 14.0 14.9 14.4 14.0 14.2 14.5 15.1 14.3 14.0 13.1 11.2 11.4 10.1 10.2 10.9 12.1 13.3 13.4 15.2 16.5 15.7 16.4 14.1
22.4 24.2 26.7 23.5 24.3 27.4 24.7 18.6 16.9 17.5 25.1 28.7 32.0 32.7 28.0 26.9 27.3 25.6 22.7 19.1 18.9 20.4 16.1 12.5 11.0 10.4 9.8 9.1 9.7 9.1 8.8 9.9 11.2 11.5 11.8 11.4 10.7 9.9 9.8 10.9 12.2 13.0 13.7 13.9 14.0 13.8 14.3 14.9 14.7 13.7 12.1 10.8 10.2 10.4 10.9 12.0 14.0 15.5 17.9 16.8 15.4 14.5 12.7
14.0 16.1 18.7 19.9 23.0 25.1 26.5 23.1 21.8 21.7 25.7 27.8 29.5 27.9 23.0 22.2 21.7 18.6 17.5 15.7 16.1 15.7 13.8 11.7 10.9 10.8 10.1 10.1 10.1 9.5 10.0 10.6 11.4 10.8 10.3 10.1 10.3 9.3 7.9 8.2 8.7 10.2 12.1 12.9 12.8 12.9 13.1 14.3 13.6 14.2 14.0 13.6 12.0 12.1 12.0 10.4 11.1 11.0 12.0 13.7 15.6 14.1 12.8
10.5 10.4 11.1 11.4 13.4 16.0 17.9 16.9 17.0 17.0 16.9 18.9 20.9 20.5 20.7 21.9 19.1 15.2 16.3 15.8 16.1 14.4 13.4 11.1 10.9 10.3 10.6 10.6 10.8 11.1 11.2 11.4 11.3 9.8 9.3 8.4 7.9 7.8 7.4 6.8 7.0 8.6 9.7 10.2 10.6 11.5 11.1 11.8 12.4 13.7 14.9 15.4 13.8 12.4 11.5 11.8 10.7 10.5 12.6 13.7 13.0 12.1 11.3
10.0 8.8 9.4 11.4 11.4 12.6 13.6 12.5 12.3 13.9 16.2 18.1 18.9 19.2 22.0 18.7 17.8 17.9 14.5 11.9 12.5 13.1 12.7 11.9 10.8 10.6 9.8 10.0 10.5 10.5 10.9 10.9 10.7 9.8 9.4 8.9 8.1 7.2 7.2 7.7 7.4 7.3 7.5 8.0 8.7 9.7 10.1 10.1 11.3 11.9 12.1 12.8 13.2 13.3 13.7 12.1 11.2 11.0 10.9 11.6 11.8 11.5 11.1
10.4 9.6 8.9 10.0 9.6 9.8 11.8 12.2 11.7 12.3 15.2 19.5 19.6 19.7 19.0 21.8 18.0 14.3 12.5 11.3 10.7 11.4 11.7 11.6 11.7 11.4 11.1 11.3 11.8 11.7 11.3 10.9 11.1 10.9 10.7 10.0 9.6 8.8 8.1 8.2 8.1 7.7 7.5 7.2 7.4 8.2 8.5 9.1 10.1 11.0 12.2 12.3 12.2 11.7 10.7 9.8 9.6 9.7 10.0 10.6 11.2 11.8 11.4